Location: Chacón
(10.5789°N, 66.9317°W)
Time: 14:32:12
(UTC+00:00)

Cosmos 1339 Rocket - Pass Details

Date: 20 August 2024
Orbit: 941 x 1006 km, 82.9° (Epoch: 17 September)

Event Time Altitude Azimuth Distance (km) Brightness Sun altitude
Rises 09:30:12 0° 157° (SSE) 3,694 7.6 -12.3°
Reaches altitude 10° 09:33:11 10° 145° (SE) 2,736 7.1 -11.6°
Maximum altitude 09:38:12 26° 91° (E) 1,831 6.9 -10.4°
Drops below altitude 10° 09:43:09 10° 37° (NE) 2,698 7.7 -9.2°
Sets 09:46:03 0° 25° (NNE) 3,634 8.1 -8.5°
